Flag for Germany Weather past 2 weeks in Kamp-Lintfort, North Rhine-Westphalia, Germany

Now
44 °F

Light rain. Overcast.


Feels Like: 39 °F
Forecast: 38 / 45 °F
Wind: 9 mph from Southwest

Location: Duesseldorf

Current Time: Dec 20, 2014 at 12:52:59 PM

Latest Report: Dec 20, 2014 at 12:00 PM


Visibility: 16 mi

Pressure: 30.12 "Hg

Humidity: 77%

Dew point: 37 °F

Location of Kamp-LintfortLocation

Historic Weather in Kamp-Lintfort — Graph

°F

Kamp-Lintfort temperature yesterday

Maximum temperature yesterday: 54 °F (at 12:00 AM)
Minimum temperature yesterday: 42 °F (at 11:00 PM)
Average temperature yesterday: 50 °F

Past Weeks' High & Low Weather Summary

 TemperatureHumidityPressure
High55 °F (Dec 18, 7:00 PM)100% (Dec 14, 6:00 AM)30.39 "Hg (Dec 14, 6:00 AM)
Low30 °F (Dec 14, 6:00 AM)65% (Dec 7, 3:00 PM)29.41 "Hg (Dec 12, 1:00 PM)
Average42 °F87%29.97 "Hg
* Reported Dec 5 12:00 Noon — Dec 20 12:00 Noon, Kamp-Lintfort, Weather by CustomWeather, © 2014

Note: Actual official high and low records may vary slightly from our data, if they occured in-between our weather recording intervals... More about our weather records

Advertising

Kamp-Lintfort weather history for previous 24 hours

 ConditionsComfort  
Time TempWeatherWind HumidityBarometerVisibility
12:00 PM
Dec 20
44 °FLight rain. Overcast.9 mph77%30.12 "Hg16 mi
11:00 AM44 °FOvercast.10 mph79%30.14 "Hg19 mi
9:00 AM41 °FOvercast.8 mph83%30.15 "Hg19 mi
8:00 AM41 °FPassing clouds.8 mph83%30.15 "Hg22 mi
7:00 AM39 °FClear.6 mph86%30.16 "Hg25 mi
6:00 AM41 °FClear.7 mph83%30.16 "Hg28 mi
5:00 AM40 °FClear.7 mph83%30.16 "Hg28 mi
3:00 AM41 °FClear.7 mph81%30.16 "Hg25 mi
2:00 AM41 °FClear.7 mph81%30.14 "Hg25 mi
1:00 AM41 °FClear.7 mph81%30.14 "Hg28 mi
12:00 AM41 °FClear.6 mph81%30.13 "Hg28 mi
11:00 PM
Dec 19
42 °FClear.6 mph80%30.11 "Hg28 mi
9:00 PM43 °FClear.6 mph80%30.08 "Hg28 mi
8:00 PM43 °FPassing clouds.5 mph80%30.05 "Hg19 mi
7:00 PM43 °FPassing clouds.5 mph80%30.02 "Hg19 mi
6:00 PM44 °FPassing clouds.5 mph78%29.99 "Hg19 mi
5:00 PM46 °FPassing clouds.5 mph76%29.96 "Hg19 mi
3:00 PM48 °FOvercast.6 mph91%29.90 "Hg9 mi
2:00 PM50 °FLight rain. Low clouds.3 mph92%29.86 "Hg9 mi
1:00 PM52 °FRain. Overcast.10 mph92%29.83 "Hg7 mi
12:00 PM52 °FRain. Overcast.10 mph91%29.83 "Hg9 mi
Weather by CustomWeather, © 2014

See weather overviewHow to use our weather pages